Regional Weather Roundup
Issued by NWS Sterling, VA

Home | Current Version | Previous Version | Text Only | Print | Product List | Glossary Off
Versions: 1 2 3 4 5 6 7 8 9 10 11 12 13 14 15 16 17 18 19 20 21 22 23 24 25 26 27 28 29 30 31 32 33 34 35 36 37 38 39 40 41 42 43 44 45 46 47 48 49 50

000
ASUS41 KLWX 280110
RWRLWX

REGIONAL WEATHER ROUNDUP
NATIONAL WEATHER SERVICE BALTIMORE MD/WASHINGTON DC
900 PM EDT WED AUG 27 2014

Note: "FAIR" indicates few or no clouds below 12,000 feet
with no significant weather and/or obstructions to visibility.
 TC=TEMPERATURE CELSIUS

 * =Non NWS site. Station does not report precipitation (e.g. rain,
    snow, etc.), thunder, or fog.

DCZ001-MDZ009-015-VAZ040>042-051-053>054-280200-
WASHINGTON METRO
  /KDAA//-FT BELVOIR

CITY           SKY/WX    TMP DP  RH WIND       PRES   REMARKS
WASHINGTON NAT PTCLDY    85  64  49 SW8       29.93R
DULLES         PTCLDY    74  69  85 CALM      29.94R
ANDREWS AFB    CLEAR     78  66  66 W7        29.93R
QUANTICO       CLEAR     76  71  85 NW6       29.94R
COLLEGE PARK*  CLEAR     77  70  78 CALM      29.92R
LEESBURG*      PTCLDY    77  73  88 W3        29.95R
MANASSAS*      CLEAR     75  73  94 CALM      29.94R
GAITHERSBURG*  PTCLDY    73  70  88 CALM      29.98R

$$

MDZ006>007-011-014-280200-
BALTIMORE METRO

CITY           SKY/WX    TMP DP  RH WIND       PRES   REMARKS
BWI AIRPORT    PTCLDY    78  67  68 CALM      29.91R
MD SCIENCE CTR   N/A     84  66  54 MISG      29.91R
MARTIN STATE   CLEAR     79  73  83 CALM      29.92R
ANNAPOLIS        N/A     79  67  66 MISG      29.91R
FORT MEADE*    CLEAR     72  70  94 CALM      29.94R

$$

MDZ012-015-019>023-280200-
MARYLAND EASTERN SHORE

CITY           SKY/WX    TMP DP  RH WIND       PRES   REMARKS
OCEAN CITY     CLEAR     67  63  87 CALM      29.92S
SALISBURY      CLEAR     74  66  76 CALM      29.92S
BAY BRIDGE AP*   N/A     79  63  57 S3        29.92R
CAMBRIDGE*     CLEAR     72  64  78 CALM      29.91S
EASTON*        CLEAR     77  66  69 CALM      29.95S

$$

MDZ017>025-280200-
SOUTHERN MARYLAND

CITY           SKY/WX    TMP DP  RH WIND       PRES   REMARKS
PATUXENT RIVER CLEAR     71  66  84 SW5       29.92S
ST INIGOES     CLEAR     69  64  84 CALM      29.92S
LEONARDTOWN*   CLEAR     73  63  68 CALM      29.94S

$$

MDZ003>005-280200-
NORTH CENTRAL MARYLAND

CITY           SKY/WX    TMP DP  RH WIND       PRES   REMARKS
FREDERICK*     PTCLDY    77  73  88 SE3       29.96R
HAGERSTOWN APT MOCLDY    81  69  67 SW3       29.95R
WESTMINSTER*   PTCLDY    79  72  78 W5        29.96R

$$

MDZ501>502-280200-
WESTERN MARYLAND

CITY           SKY/WX    TMP DP  RH WIND       PRES   REMARKS
OAKLAND*       CLOUDY    68 N/A N/A W7        30.11S HAZE
CUMBERLAND*    MOCLDY    82  64  54 NW3       30.01S

$$

VAZ025>031-280200-
SHENANDOAH VALLEY

CITY           SKY/WX    TMP DP  RH WIND       PRES   REMARKS
WINCHESTER*    PTCLDY    77  68  73 CALM      29.96R
STAUNTON*      CLEAR     74  67  79 CALM      30.02R

$$

WVZ021-048>050-054>055-280200-
EASTERN WEST VIRGINIA PANHANDLE

CITY           SKY/WX    TMP DP  RH WIND       PRES   REMARKS
MARTINSBURG    PTCLDY    78  68  71 CALM      29.95R
PETERSBURG*    NOT AVBL

$$

VAZ036>039-050-280200-
CENTRAL FOOTHILLS

CITY           SKY/WX    TMP DP  RH WIND       PRES   REMARKS
CHARLOTTESVILL CLEAR     76  66  71 CALM      29.96R
ORANGE*        CLEAR     72  66  83 CALM      29.97R

$$

VAZ055>057-280200-
NORTH AND CENTRAL PIEDMONT

CITY           SKY/WX    TMP DP  RH WIND       PRES   REMARKS
FREDERICKSBRG* CLEAR     76  67  73 CALM      29.93R
STAFFORD*      CLEAR     72  72 100 CALM      29.98R

$$

NCZ024-NYZ072-PAZ021-071-VAZ022-071-280200-
OTHER REGIONAL OBSERVATIONS

CITY           SKY/WX    TMP DP  RH WIND       PRES   REMARKS
NEW YORK CITY  CLOUDY    83  65  54 VRB3      29.92R
PHILADELPHIA   PTCLDY    82  66  58 SW10      29.90R
PITTSBURGH     MOCLDY    74  65  73 N10       30.04R
ROANOKE        CLEAR     76  63  64 CALM      30.02S
RICHMOND       PTCLDY    78  64  61 CALM      29.95R
RALEIGH        PTCLDY    70  61  73 CALM      29.99R

$$

ANZ530>537-280200-
MARINE OBSERVATIONS

STATION/POSITION TIME  TEMP    WIND        PRES
                       AIR SEA DIR/SP/G
                 (UTC) (F)     (DEG/KT/KT) (MB)
THOMAS PT LIGHT  0100   80 79  210/  9/ 10 1014.0R
BALT KEY BRIDGE  0100   87     180/  4/  5 1012.5R
COVE POINT       0100   79     230/  4/  5 1012.9S
LEWISETTA        0100   77 81  240/  4/  5 1013.1R
SOLOMONS ISLAND  0100      81                N/A
PINEY POINT      0100          240/  3/  6   N/A

$$




USA.gov is the U.S. government's official web portal to all federal, state and local government web resources and services.